CAPE
0 7 7 1 3 0 6 17 5 3 0 0 0 4 16 4 5 0 2 1 3 0 2 9 6 4 0 9 0 0 4 10 17 4 0 68 91 124 145 192 242 187 0 403 1036 1195 1420 1675 2075 2364 2441 2458 2507 2599 2647 2658 2654 2521 1638 1614 1820 1491 1559 1695 1672 2105 2395 2327 2200 2124 2056 2006 1957 1927 1933 2023 2284 2371 2392 2403 2465 2506 2453 2407 2455 2457 2412
2 8 6 5 1 1 9 10 5 1 0 0 0 2 3 3 4 1 0 0 0 0 19 37 52 51 54 47 61 60 81 9 0 0 115 132 142 130 168 189 173 0 0 497 1026 1165 1402 1676 2070 2316 2448 2476 2498 2554 2569 2587 2609 2390 1736 1457 1578 1518 1565 1688 1739 2102 2299 2354 2333 2220 2096 2013 1973 1956 1929 1937 2173 2313 2409 2458 2503 2490 2430 2340 2366 2456 2497
2 10 9 8 0 0 1 1 0 0 0 0 0 3 0 1 8 10 1 0 0 2 6 116 137 144 161 232 313 419 508 639 550 419 304 192 203 193 213 196 8 0 0 498 1076 1235 1371 1638 2031 2268 2407 2425 2507 2536 2538 2616 2524 2239 1839 1537 1659 1500 1288 1455 1629 2000 2210 2266 2272 2229 2152 2014 1938 1911 1925 1935 2008 2228 2299 2424 2516 2341 2257 2340 2380 2188 2137
0 0 0 0 0 0 0 0 0 0 0 0 0 1 1 0 8 6 3 7 8 13 25 82 110 251 357 469 556 651 705 741 722 712 622 443 306 137 0 0 0 0 2 427 1132 1291 1394 1692 1994 2183 2346 2466 2458 2522 2569 2568 2433 2161 1798 1670 1561 1230 1306 1448 1601 1970 2121 2119 2081 2143 2165 2144 2049 1941 1876 1820 1868 2122 2244 2332 2451 2334 2149 2279 2276 1983 1821
1 0 0 0 0 0 0 1 0 1 5 11 10 10 3 1 0 2 5 17 32 3 41 162 221 323 378 606 580 647 746 653 718 698 839 672 370 0 0 0 0 0 5 486 1138 1350 1469 1760 1971 2114 2243 2332 2403 2491 2614 2596 2369 1946 1678 1762 1695 1349 1124 1122 1470 1692 1666 1838 1872 1912 2001 2111 2109 1946 1890 1774 1750 2072 2226 2353 2146 2182 2276 2222 2097 1736 1744
7 4 0 0 0 1 0 0 0 3 1 1 5 18 23 13 11 7 4 16 26 10 91 43 267 399 547 632 661 796 895 662 688 1203 1171 724 14 0 0 0 0 0 193 696 1119 1388 1542 1745 1908 2070 2203 2256 2317 2415 2534 2444 2243 1786 1575 1637 1538 1298 1072 867 892 1030 1405 1531 1618 1730 1858 2040 2065 1906 1802 1574 1617 1943 2188 2255 2084 1945 2233 2085 1945 1933 1856
1 0 0 0 0 0 0 0 0 1 5 9 6 13 13 7 9 6 7 7 26 40 61 257 204 334 508 600 631 883 860 720 1043 1465 1130 1002 870 222 72 30 23 88 438 793 1164 1415 1550 1716 1833 1902 2008 2076 2127 2273 2329 2216 2086 1761 1580 1580 1385 1034 856 759 782 1046 1634 1693 1714 1825 1956 2062 2069 1996 1849 1551 1513 1743 1946 2046 1935 2001 2125 2042 2012 1965 1846
0 0 0 0 0 0 0 0 0 0 1 2 0 0 6 4 6 7 27 30 28 12 107 212 316 344 316 505 646 840 859 853 1349 1407 1196 1142 1069 758 378 226 222 325 604 902 1230 1411 1478 1586 1650 1718 1857 1915 1967 2144 2130 2044 1920 1682 1521 1527 1243 840 670 611 726 1079 1608 1841 1821 1930 2062 2164 2122 2081 1942 1745 1556 1738 1862 1932 1877 1813 1688 1822 1944 1792 1617
0 0 0 0 0 0 0 0 0 1 1 1 0 1 0 0 10 6 7 5 13 0 166 286 350 340 129 435 612 789 799 1002 1326 1266 1213 1298 1257 1183 764 681 751 823 993 1166 1356 1462 1496 1530 1598 1656 1658 1692 1740 1772 1845 1878 1921 1968 1954 1794 1197 926 735 768 982 1223 1545 1852 1927 1932 2034 2092 2108 2010 1836 1662 1520 1761 1897 1933 1901 1821 1869 1965 1894 1808 1595
0 0 2 0 0 0 0 0 0 0 0 0 2 6 20 28 10 20 8 11 20 3 0 311 238 113 80 483 588 683 691 714 928 1050 1234 1670 1546 1409 1207 1201 1274 1269 1266 1313 1435 1478 1493 1501 1506 1472 1471 1481 1485 1522 1712 1938 2046 2134 2140 1894 1208 866 821 858 964 1247 1586 1758 1880 1969 2004 2068 2134 2118 1893 1483 1535 1787 1920 1965 1834 1805 1665 1871 1765 1598 1628
0 0 1 1 0 2 0 0 0 0 0 0 0 0 0 2 35 48 30 14 6 27 41 227 176 80 149 267 410 603 616 617 658 712 982 1720 1710 1502 1405 1448 1458 1477 1437 1423 1515 1564 1516 1481 1446 1372 1316 1314 1358 1549 1870 2103 2227 2232 2043 1698 1366 1001 1026 1219 1345 1458 1591 1590 1738 1864 1966 2004 2025 2109 1885 1470 1532 1723 1881 1912 1755 1379 1717 1778 1646 1408 1417
0 0 1 2 9 0 0 3 0 0 0 0 0 0 1 14 25 39 45 6 38 36 1 8 6 28 81 28 78 517 713 687 807 970 1462 1725 1664 1500 1480 1536 1590 1591 1568 1488 1503 1572 1579 1547 1508 1431 1363 1346 1478 1677 1916 2059 2097 2192 1951 1418 1304 1282 1216 1220 1244 1370 1297 1602 1776 1838 1896 1981 1953 2096 1858 1596 1592 1725 1823 1686 1332 1406 1880 1797 1521 1392 1299
0 0 0 0 6 0 1 3 0 0 0 0 1 3 12 19 24 20 37 33 30 10 125 10 92 10 34 140 369 641 819 1058 1459 1435 1371 1404 1431 1623 1568 1545 1570 1572 1571 1578 1498 1458 1464 1508 1572 1602 1628 1588 1670 1777 1819 1918 1990 1984 1776 1338 1280 1232 938 755 778 902 1247 1715 1956 2030 2049 2096 2103 2166 1957 1821 1791 1652 1643 1575 1216 1506 1772 1537 1491 1371 1165
2 0 4 0 2 2 11 0 0 0 0 2 4 4 28 26 33 47 54 14 21 35 20 26 15 270 331 464 516 677 752 895 1148 1412 1565 1536 1552 1315 1555 1661 1644 1644 1681 1674 1677 1626 1530 1495 1477 1555 1589 1715 1796 1830 1836 1825 1851 1563 1173 1284 1155 775 710 940 1174 1280 1430 1769 2012 2050 2096 2198 2266 2221 2133 2063 1940 1878 1848 1801 1560 1565 1590 1555 1443 1238 1093
2 1 10 2 0 0 18 13 0 0 1 5 16 30 34 39 17 34 33 18 33 65 135 134 216 274 222 402 732 737 766 875 1078 1308 1378 1354 1298 1342 1199 1431 1617 1768 1721 1722 1695 1732 1707 1686 1560 1482 1556 1571 1605 1626 1770 1748 1542 1243 1294 1396 1193 954 1116 1436 1336 1251 1472 1680 1884 1946 2028 2115 2165 2111 2175 2082 1854 1800 1803 1743 1682 1618 1564 1455 1323 1188 1030
1 9 4 0 0 0 26 14 0 2 7 6 16 29 31 25 18 13 55 93 72 16 2 0 0 171 241 364 638 685 707 735 784 819 988 1290 1086 1048 969 1008 1204 1408 1550 1617 1596 1522 1399 1480 1596 1183 1440 1645 1707 1732 1398 1140 1115 942 676 839 972 1031 1076 1130 1267 1320 1302 1353 1251 1210 1328 1386 1631 1867 2089 2031 1972 1987 1913 1831 1618 1479 1407 1355 1276 1126 997
3 3 1 0 0 1 8 9 2 2 3 9 16 24 43 34 25 24 34 36 129 236 254 248 207 242 360 508 737 744 778 748 778 703 786 650 493 606 648 827 1468 1482 1515 1538 1464 1480 1247 1316 1150 1045 1078 797 642 905 688 692 718 757 866 904 1020 1094 1056 1091 1050 984 969 947 716 601 542 948 1454 1982 2148 2054 2040 1965 1817 1666 1585 1514 1446 1348 1238 1052 950
0 4 0 0 0 1 0 0 1 2 3 15 12 16 36 45 38 22 28 16 58 26 288 461 443 376 366 577 817 780 744 708 693 629 544 487 657 604 604 419 634 1119 1378 1451 1454 1138 938 848 793 749 593 784 691 704 771 914 954 980 1013 1090 1114 964 792 733 942 980 618 400 462 527 471 730 1507 2213 2165 2016 1899 1843 1765 1726 1656 1590 1542 1382 1152 983 911
0 2 1 0 0 0 2 0 0 2 2 4 10 18 33 50 46 23 26 32 19 110 123 331 332 333 336 443 521 650 601 740 771 782 783 626 628 781 880 749 635 668 846 788 818 685 585 907 629 679 1223 1148 1187 1208 1252 1109 877 717 783 829 708 727 792 905 886 668 244 301 415 554 941 1360 1951 1962 1980 1989 1933 1928 1824 1717 1611 1494 1359 1128 966 956 910
6 3 2 0 0 1 0 1 1 4 3 6 6 13 28 41 47 40 29 20 36 63 82 39 308 389 426 435 432 422 383 408 633 721 761 742 676 566 689 804 872 810 709 547 673 740 738 714 693 957 1195 1141 970 846 686 595 649 574 555 495 558 596 702 617 644 596 371 364 694 1449 1962 2162 2029 1935 1850 1820 1735 1634 1560 1470 1403 1239 1044 925 956 923 834
0 1 2 0 0 0 0 0 6 9 8 6 7 6 11 22 28 30 32 18 40 32 47 96 64 183 342 326 338 427 410 410 433 441 326 338 505 677 603 586 709 866 788 724 745 581 674 684 930 972 901 742 564 605 556 557 586 558 553 516 432 424 585 558 580 623 772 901 1244 1956 2167 2098 1835 1713 1545 1442 1323 1340 1262 1173 1050 962 970 984 965 924 806
4 2 1 1 0 0 0 0 4 12 10 5 7 7 4 10 20 22 24 21 15 36 59 80 108 79 147 364 416 443 401 402 386 389 376 320 356 356 462 419 426 471 565 587 571 576 594 528 524 440 471 563 655 689 633 538 428 355 420 455 436 515 726 1074 1101 1121 1380 1726 1885 1951 1863 1640 1523 1412 1418 1387 1396 1296 1188 1058 1028 1033 1042 1066 1008 956 858
2 3 3 1 0 0 0 2 11 15 10 4 6 9 5 6 13 21 19 16 20 15 17 48 85 76 113 81 137 339 439 450 458 457 419 419 363 270 282 375 398 357 302 259 333 407 526 526 460 430 518 593 631 596 507 538 493 424 446 639 850 934 1318 1267 1518 1781 1895 1913 1800 1646 1518 1467 1417 1321 1278 1156 1096 1001 1029 1011 1043 1073 1066 1006 879 766 660
2 2 1 2 1 0 0 6 17 21 13 8 4 8 9 3 1 8 15 14 10 10 8 3 32 71 96 101 146 206 138 181 316 362 369 317 316 345 448 394 300 337 302 0 0 106 347 411 466 556 584 601 556 546 639 796 754 778 773 859 743 892 1507 1704 1798 1840 1802 1733 1638 1592 1517 1396 1240 956 863 784 682 631 609 626 689 851 919 793 654 545 447
0 0 0 2 1 0 1 6 20 18 11 12 3 3 7 6 8 5 2 4 4 2 2 6 2 8 12 39 70 102 166 157 61 137 177 225 275 411 383 340 350 304 252 236 35 205 299 335 397 500 579 583 606 664 776 883 850 838 856 802 994 1452 1608 1771 1728 1683 1618 1659 1620 1591 1473 1289 1071 814 599 309 224 140 186 343 542 584 455 569 515 404 294
0 0 0 0 0 0 3 5 8 11 11 7 1 1 6 6 17 1 3 2 0 0 0 1 1 0 0 0 32 34 71 111 88 40 72 192 3 232 283 290 221 214 219 248 280 313 367 341 329 409 507 587 764 799 826 886 882 693 792 1071 1351 1399 1581 1648 1617 1617 1527 1507 1376 1362 1345 1246 967 443 286 186 89 174 282 307 392 483 561 409 257 158 241
0 0 0 0 1 1 1 6 1 0 2 0 0 1 0 0 5 13 5 3 1 0 0 1 0 0 0 0 0 0 8 17 24 74 84 80 150 55 43 27 119 117 247 302 324 287 298 229 222 291 333 423 509 567 564 730 570 648 730 985 1149 1350 1470 1393 1268 1280 1216 1196 1073 1006 896 593 392 458 346 396 242 196 203 256 315 331 188 190 239 180 135
0 0 0 0 0 0 1 5 5 2 2 0 0 1 3 0 0 1 5 6 4 4 1 0 0 0 1 0 0 0 0 2 15 25 31 75 29 2 0 8 50 3 150 191 196 247 0 0 0 3 2 218 280 378 432 538 564 554 663 610 726 891 993 941 988 964 876 830 550 392 431 445 406 386 364 306 281 255 266 229 240 232 217 214 222 179 140
0 0 0 0 0 0 0 0 1 0 0 0 0 0 2 2 0 0 1 4 4 4 4 4 3 2 1 1 0 0 0 8 0 2 24 16 74 9 11 42 14 23 7 20 155 121 177 244 89 400 393 398 365 333 334 485 450 530 630 626 662 661 644 595 461 449 338 222 294 284 308 235 175 177 199 100 83 73 170 208 248 237 224 209 42 2 2
0 0 0 0 0 0 0 0 0 0 0 0 0 0 0 4 1 0 0 0 0 1 1 2 2 3 1 0 0 0 0 0 0 2 10 16 17 18 22 33 18 35 34 105 107 68 8 34 135 447 397 294 321 352 362 394 359 317 352 329 305 221 246 221 209 184 179 142 121 63 55 54 70 107 29 19 146 36 37 31 27 105 31 20 25 2 22
0 0 0 0 0 0 0 0 0 0 0 0 0 0 0 0 0 0 0 0 0 0 0 0 0 1 2 0 0 0 0 0 0 0 0 1 10 7 39 17 16 76 80 90 45 54 62 45 2 9 102 69 281 181 266 299 274 258 235 218 194 96 77 82 43 55 53 34 30 6 6 12 5 2 4 13 30 24 6 6 15 31 44 35 40 68 31
0 0 0 0 0 0 0 0 0 0 0 0 0 0 0 0 0 1 0 0 0 0 0 0 0 0 0 0 0 0 0 0 0 0 0 0 0 0 20 32 1 50 51 77 79 77 48 32 22 86 88 70 110 113 76 34 27 47 81 73 84 134 131 116 40 20 26 2 1 2 4 6 10 16 22 31 23 11 5 8 7 12 23 13 11 12 4
0 0 0 0 0 0 0 0 0 0 0 0 0 0 0 0 0 0 1 0 4 1 2 0 1 2 5 4 0 0 0 0 0 0 0 0 0 0 0 0 2 26 67 53 17 41 39 70 25 90 54 53 42 49 21 41 68 48 52 58 60 52 53 52 56 48 22 9 5 3 3 3 1 2 5 10 8 2 4 6 3 2 2 0 1 1 2
0 0 0 0 0 0 0 0 0 0 0 0 0 0 0 0 0 0 0 0 4 2 0 4 1 2 5 5 1 0 0 0 0 0 0 0 0 0 0 0 0 6 17 15 8 17 38 17 12 3 1 6 1 0 1 2 2 4 4 1 2 1 1 1 2 6 9 13 16 14 18 21 25 38 34 28 10 4 2 3 2 0 0 0 0 3 4
0 0 0 0 0 0 0 0 0 0 0 0 0 0 0 0 0 0 0 0 0 0 0 1 2 4 3 4 3 1 0 0 0 0 0 0 0 0 0 0 0 0 0 0 0 0 0 0 0 0 0 0 0 0 0 0 0 0 1 4 6 9 10 10 10 6 7 8 10 11 13 14 15 15 13 16 15 12 10 4 1 3 5 6 2 0 0
0 0 0 0 0 0 0 0 0 0 0 0 0 0 0 0 0 0 0 0 0 1 2 0 1 2 2 3 3 2 1 0 0 0 0 0 0 0 0 0 0 0 0 0 0 0 0 0 0 0 0 0 0 0 0 0 0 0 0 0 1 2 2 4 6 4 4 7 6 7 7 9 8 9 8 10 8 6 4 3 5 3 2 1 0 0 0
0 0 0 0 0 0 0 0 0 0 0 0 0 0 0 0 0 0 0 0 0 10 2 0 0 6 10 3 1 2 2 1 0 0 0 0 0 0 0 0 0 0 0 0 0 0 0 0 0 0 0 0 0 0 0 0 0 0 0 0 0 1 0 0 0 0 1 1 2 2 4 4 2 1 2 1 0 0 2 0 2 5 5 4 2 0 0
2 0 0 0 0 0 0 0 0 0 0 0 0 0 0 0 0 0 0 0 2 26 20 1 0 0 1 2 4 4 3 1 0 0 0 0 0 0 0 0 0 0 0 0 0 0 0 0 0 0 0 0 0 0 0 0 0 0 0 2 2 2 2 3 4 4 4 3 3 2 3 8 10 10 9 7 9 11 12 10 8 3 1 1 2 2 1
2 1 0 0 0 0 0 0 0 0 0 0 0 0 0 0 0 0 0 0 0 29 32 17 1 3 5 5 10 7 2 0 2 2 0 0 0 0 0 0 0 0 0 0 0 0 0 0 0 0 0 0 0 0 0 0 0 0 0 1 2 2 2 4 5 4 3 4 4 4 5 8 9 10 7 6 10 10 8 7 7 6 5 2 2 2 1
2 0 0 0 0 0 0 0 0 0 0 0 0 0 0 0 0 0 0 0 0 0 22 21 0 3 5 12 11 10 10 9 4 3 3 1 2 0 0 0 0 0 0 0 0 0 0 0 0 0 0 0 0 0 0 0 0 0 0 0 1 3 4 2 3 7 8 9 8 9 6 8 6 6 8 10 9 8 5 3 5 6 6 4 3 1 0
2 2 1 0 0 0 0 0 0 0 0 0 0 0 0 0 0 0 0 0 0 0 0 0 0 0 1 3 8 10 6 7 6 4 4 4 5 2 0 0 0 0 0 0 0 0 0 0 0 0 0 0 0 0 0 0 0 0 0 0 0 0 2 6 9 10 8 8 10 13 14 12 8 9 11 8 8 7 7 6 6 6 5 2 1 0 0
0 0 0 0 1 0 0 0 0 0 0 0 0 0 0 0 0 0 0 0 0 0 0 0 0 0 0 0 2 4 8 10 5 4 4 3 1 1 1 0 0 0 0 0 0 0 0 0 0 0 0 0 0 0 0 0 0 0 0 0 0 0 0 2 5 7 8 11 12 14 13 10 10 11 9 6 4 5 5 4 4 3 1 1 0 0 0
0 0 0 0 0 0 0 0 0 0 0 0 0 0 0 0 0 0 0 0 4 1 0 0 0 0 0 0 0 3 8 10 10 8 4 4 2 3 2 4 1 0 0 0 0 0 5 13 2 2 0 0 0 0 0 0 0 0 0 0 0 0 0 0 0 2 6 9 11 9 7 9 12 12 9 6 4 3 1 0 1 0 1 0 0 0 0
0 0 0 1 0 0 0 0 0 0 0 0 0 0 0 0 0 0 0 7 5 0 0 0 0 0 0 0 0 0 0 3 5 7 5 3 4 6 4 4 2 0 0 0 0 0 0 1 2 13 8 5 0 0 0 0 0 0 0 0 0 0 0 0 0 0 0 2 7 10 7 5 7 7 6 5 4 2 2 2 2 0 0 0 0 0 0
0 1 1 3 2 1 0 0 0 1 0 0 0 0 0 2 3 2 0 0 4 0 0 0 0 0 0 0 0 0 0 0 0 0 0 1 6 6 1 2 2 1 1 0 0 1 0 0 0 0 4 20 16 0 0 0 0 0 0 0 0 0 0 0 0 0 1 2 3 6 7 6 4 3 3 3 2 4 4 4 3 1 0 0 0 0 0
0 0 0 3 6 5 2 0 0 0 0 0 0 1 0 6 10 4 0 0 4 1 0 0 1 1 2 1 0 0 0 2 1 0 0 0 0 0 0 0 2 2 0 0 0 0 0 0 0 0 0 1 1 12 5 0 1 2 2 0 0 0 0 0 0 0 0 1 2 3 2 1 2 3 2 1 3 4 3 4 3 1 0 0 0 0 0
0 0 0 1 0 0 1 0 0 0 0 0 0 2 0 4 10 5 0 0 3 9 16 9 6 4 3 1 0 0 0 0 0 0 12 9 13 4 3 2 1 3 2 0 0 0 0 0 0 0 0 0 1 13 18 2 1 1 3 0 0 0 0 0 0 0 0 0 0 1 4 8 9 7 5 5 6 4 2 2 1 0 0 0 0 0 0
0 0 0 0 1 0 0 0 0 0 0 0 1 2 3 4 4 4 4 0 4 7 11 9 2 1 2 0 0 0 0 0 0 0 0 1 20 32 31 22 20 2 2 0 0 0 0 0 0 0 0 0 0 0 22 10 4 1 1 1 0 0 0 0 0 0 0 0 0 0 0 0 1 3 7 8 7 4 2 0 0 0 0 0 0 0 0
0 0 0 0 0 2 0 0 0 0 0 2 4 4 4 0 6 12 7 3 1 1 0 1 1 0 0 0 1 0 0 0 0 1 0 2 0 4 16 13 2 4 9 6 4 0 0 2 0 0 0 1 0 0 15 20 3 2 2 0 1 0 0 0 0 0 0 0 0 0 0 0 0 0 0 2 2 2 1 0 0 0 0 0 0 0 0
0 0 0 0 0 0 1 1 0 0 0 1 5 7 4 0 6 3 10 12 5 1 4 3 0 0 0 0 1 2 4 3 1 0 1 1 0 4 4 3 8 8 7 10 11 6 3 4 19 19 15 0 2 2 2 15 12 18 3 3 1 0 1 7 0 0 0 0 0 0 0 0 0 0 0 0 0 0 0 0 0 0 0 0 0 0 0
0 0 0 0 0 3 3 3 2 0 0 1 3 2 1 0 0 0 6 8 5 9 12 10 7 1 0 0 1 3 2 4 2 0 0 0 1 3 2 6 5 3 4 7 14 9 1 0 9 3 6 12 0 3 6 15 9 16 21 5 16 16 10 13 12 14 10 0 0 0 0 0 0 0 0 0 0 0 0 0 0 0 0 0 1 1 0
0 0 0 0 0 0 0 0 1 1 0 0 0 3 4 2 1 1 2 0 2 8 13 17 12 9 2 0 0 1 0 0 0 0 0 0 2 5 7 6 4 4 4 4 7 2 0 0 0 0 2 0 1 1 1 4 9 6 6 10 8 9 8 8 13 5 13 8 2 0 0 0 0 0 0 0 0 0 0 0 0 0 0 0 0 0 0
Wind_Speed
nan nan nan nan nan nan nan nan nan nan nan nan nan nan nan nan nan nan nan nan nan nan nan nan nan nan nan nan nan nan nan nan nan nan nan nan nan 38 41 43 43 43 nan 43 42 42 42 42 38 39 46 46 47 48 47 45 43 38 33 25 24 31 33 30 30 31 27 29 31 31 30 28 26 24 23 23 22 20 19 19 19 19 19 20 21 22 25
nan nan nan nan nan nan nan nan nan nan nan nan nan nan nan nan nan nan nan nan nan nan nan nan nan nan nan nan nan nan nan nan nan nan 14 19 25 32 40 43 41 nan nan 40 40 39 39 37 36 40 44 43 44 45 45 44 40 35 32 25 22 28 34 35 35 33 32 32 33 32 29 27 24 23 23 22 20 19 18 19 19 19 20 21 23 23 24
nan nan nan nan nan nan nan nan nan nan nan nan nan nan nan nan nan nan nan nan nan nan nan 19 22 27 30 27 23 21 17 11 6 5 11 17 29 38 41 39 nan nan nan 38 37 35 34 34 36 39 40 39 41 43 43 41 35 31 30 27 24 27 31 33 33 33 34 34 33 30 28 27 26 24 22 21 19 18 18 18 19 21 24 25 24 24 23
nan nan nan nan nan nan nan nan nan nan nan nan nan nan nan nan nan nan nan nan nan nan nan nan 20 25 26 26 27 23 25 25 23 20 20 24 31 34 nan nan nan nan nan 34 32 30 31 32 33 35 36 38 40 40 39 36 33 31 29 28 28 32 32 32 33 32 32 33 32 31 29 27 26 23 21 19 18 18 18 18 21 25 21 23 27 26 23
nan nan nan nan nan nan nan nan nan nan nan nan nan nan nan nan nan nan nan nan nan nan nan 22 25 20 17 22 27 27 32 32 30 27 27 24 24 nan nan nan nan nan nan 28 27 29 29 30 30 31 34 36 33 33 32 33 33 30 28 28 31 33 31 29 31 34 33 33 32 32 30 29 26 23 20 18 18 18 16 20 23 19 22 25 25 27 26
nan nan nan nan nan nan nan nan nan nan nan nan nan nan nan nan nan nan nan nan nan nan nan nan 23 18 14 19 25 25 29 33 33 27 27 29 nan nan nan nan nan nan 27 27 26 25 26 26 26 28 27 25 26 27 30 31 29 29 30 30 29 31 30 28 34 37 37 34 31 32 32 30 26 22 19 17 18 18 18 20 19 20 23 23 24 27 28
nan nan nan nan nan nan nan nan nan nan nan nan nan nan nan nan nan nan nan nan nan nan nan 20 20 18 18 21 22 25 29 32 34 32 29 27 34 22 nan nan nan nan 21 22 22 22 24 23 26 26 27 27 29 30 29 29 29 28 29 28 30 29 28 31 34 36 36 34 32 32 33 30 25 21 20 19 19 18 17 18 21 21 23 23 24 27 27
nan nan nan nan nan nan nan nan nan nan nan nan nan nan nan nan nan nan nan nan nan nan 22 23 21 21 24 22 22 26 33 35 36 39 35 30 30 29 17 16 18 19 21 21 21 23 25 25 25 24 25 27 27 27 27 27 28 27 27 27 28 27 29 30 30 32 34 35 32 32 32 29 24 21 20 19 18 18 19 23 24 25 27 26 26 25 25
nan nan nan nan nan nan nan nan nan nan nan nan nan nan nan nan nan nan nan nan nan nan 26 28 25 22 24 25 30 35 38 42 43 41 42 34 34 39 29 21 21 20 20 19 21 23 23 22 21 22 23 24 26 28 28 28 26 26 27 27 24 22 24 27 28 30 34 34 32 30 30 27 23 22 21 19 19 19 21 22 23 24 25 24 24 27 27
nan nan nan nan nan nan nan nan nan nan nan nan nan nan nan nan nan nan nan nan nan nan nan 32 32 25 nan 29 33 40 43 45 48 47 41 36 36 37 33 29 23 24 23 22 20 17 17 17 18 21 23 24 25 25 26 26 25 27 27 23 20 18 20 23 25 29 34 33 30 28 27 24 24 24 22 20 18 18 20 21 23 27 26 24 25 24 28
nan nan nan nan nan nan nan nan nan nan nan nan nan nan nan nan nan nan nan nan nan nan nan 33 30 nan 26 31 35 41 45 46 46 43 36 31 32 36 32 21 22 23 22 18 18 18 16 18 22 22 22 22 23 23 23 23 24 24 22 18 16 15 17 23 28 30 32 32 28 24 24 26 26 24 21 18 18 19 20 21 27 27 25 25 25 24 27
nan nan nan nan nan nan nan nan nan nan nan nan nan nan nan nan nan nan nan nan nan nan nan nan nan nan nan nan nan 43 45 44 39 37 37 35 31 31 35 35 28 24 24 24 23 20 19 19 22 23 24 23 21 21 20 22 21 18 15 13 14 18 23 26 27 27 28 27 24 22 25 27 26 24 22 21 19 20 20 24 28 27 26 25 27 27 29
nan nan nan nan nan nan nan nan nan nan nan nan nan nan nan nan nan nan nan nan nan nan 22 nan nan nan nan 34 39 40 41 39 36 33 32 33 34 34 34 30 28 27 27 25 24 27 30 29 24 22 22 23 22 22 21 20 17 15 16 20 22 22 24 27 29 30 29 24 22 24 27 27 26 24 21 19 21 22 23 26 27 27 26 26 29 30 30
nan nan nan nan nan nan nan nan nan nan nan nan nan nan nan nan nan nan nan nan nan nan nan nan nan 23 25 26 32 37 35 36 36 35 34 35 37 38 36 35 30 26 27 26 27 28 28 30 32 25 21 23 23 22 22 18 18 23 25 23 23 24 24 24 27 30 28 28 28 29 30 28 24 22 21 21 21 22 23 24 26 27 27 28 30 31 31
nan nan nan nan nan nan nan nan nan nan nan nan nan nan nan nan nan nan nan nan nan nan 18 17 17 23 29 30 32 33 33 31 30 31 32 34 37 39 41 38 39 35 33 35 37 36 34 31 35 39 31 23 25 28 27 27 28 28 27 25 25 26 24 22 24 25 27 26 24 25 26 24 22 22 22 22 21 22 23 24 27 28 28 29 30 32 32
nan nan nan nan nan nan nan nan nan nan nan nan nan nan nan nan nan nan nan nan nan nan nan nan nan 24 32 34 32 30 32 30 27 27 29 30 31 31 32 36 34 35 35 35 37 38 39 37 34 34 37 36 32 31 33 33 32 30 29 29 29 28 26 25 24 23 21 20 20 24 26 22 19 22 22 20 21 21 22 24 25 26 27 28 30 31 31
nan nan nan nan nan nan nan nan nan nan nan nan nan nan nan nan nan nan nan nan 20 20 23 21 23 28 35 32 29 28 31 31 31 30 31 31 27 24 23 22 25 22 24 27 30 33 35 37 36 34 30 28 33 36 32 32 33 32 32 34 33 28 24 25 25 21 18 18 23 30 26 20 17 19 20 19 21 20 21 23 24 26 26 28 29 29 30
nan nan nan nan nan nan nan nan nan nan nan nan nan nan nan nan nan nan nan nan nan nan 18 16 21 27 33 31 30 31 32 32 34 34 33 33 33 29 26 26 26 21 18 22 24 26 31 32 33 36 32 29 32 30 29 30 31 33 35 34 29 24 22 21 20 18 17 23 29 28 23 15 16 18 17 18 20 19 21 22 23 25 26 27 28 28 28
nan nan nan nan nan nan nan nan nan nan nan nan nan nan nan nan nan nan nan nan nan 14 15 17 20 25 30 31 30 29 30 32 34 34 34 32 32 33 32 29 26 26 24 22 23 26 28 26 27 25 25 26 26 27 28 28 32 34 35 34 34 32 25 20 20 20 22 25 27 25 18 17 20 19 18 20 20 20 20 22 23 25 26 26 27 28 30
nan nan nan nan nan nan nan nan nan nan nan nan nan nan nan nan nan nan nan nan nan nan nan nan 20 22 28 32 32 29 29 30 31 33 33 32 31 33 33 31 30 29 28 25 28 32 32 32 33 32 27 27 27 27 27 28 29 30 30 31 32 30 27 24 24 24 26 27 27 25 25 24 24 23 24 25 25 24 24 23 24 25 26 26 27 28 30
nan nan nan nan nan nan nan nan nan nan nan nan nan nan nan nan nan nan nan nan nan nan nan nan nan 22 24 27 29 30 29 31 33 33 32 31 30 30 30 30 31 31 26 24 29 35 36 34 34 31 29 27 29 31 31 30 30 33 34 34 33 31 28 27 28 26 27 24 20 23 26 28 28 29 27 26 25 26 27 25 24 26 26 26 25 26 29
nan nan nan nan nan nan nan nan nan nan nan nan nan nan nan nan nan nan nan nan nan nan nan nan 18 nan 20 23 27 30 29 30 32 34 32 31 32 31 28 27 30 31 29 25 26 31 32 31 29 29 30 30 30 28 27 26 28 32 33 33 33 30 26 26 25 23 21 21 22 23 24 28 33 34 35 36 32 29 27 29 28 23 25 25 25 28 30
nan nan nan nan nan nan nan nan nan nan nan nan nan nan nan nan nan nan nan nan nan nan nan nan nan nan 20 nan 23 26 29 31 30 31 32 31 30 29 29 29 30 28 27 27 28 27 26 26 27 26 26 28 29 30 28 27 29 31 33 34 32 28 24 22 20 18 20 23 23 23 25 27 29 30 30 33 38 38 35 34 35 37 37 36 36 33 30
nan nan nan nan nan nan nan nan nan nan nan nan nan nan nan nan nan nan nan nan nan nan nan nan nan nan nan 22 22 23 25 30 33 34 32 29 28 27 27 27 28 28 27 nan nan 25 23 24 25 28 31 34 35 34 32 32 33 31 28 28 28 28 28 28 25 22 21 22 23 26 27 27 27 28 30 30 31 34 36 37 38 39 37 35 35 34 31
nan nan nan nan nan nan nan nan nan nan nan nan nan nan nan nan nan nan nan nan nan nan nan nan nan nan nan nan nan 23 23 26 nan 31 29 27 30 31 29 30 31 29 27 26 nan 26 26 27 29 31 33 35 34 31 28 27 27 27 26 27 26 27 28 30 28 27 25 25 25 26 27 28 27 27 28 29 31 28 29 35 40 40 38 36 34 33 32
nan nan nan nan nan nan nan nan nan nan nan nan nan nan nan nan nan nan nan nan nan nan nan nan nan nan nan nan nan nan nan 26 nan nan nan 28 nan 32 33 30 28 28 27 27 29 31 32 34 34 34 33 31 30 29 27 28 28 27 24 22 21 23 24 26 28 29 28 27 27 28 28 29 28 29 29 29 nan 28 29 29 30 32 35 36 33 33 34
nan nan nan nan nan nan nan nan nan nan nan nan nan nan nan nan nan nan nan nan nan nan nan nan nan nan nan nan nan nan nan nan nan nan nan nan 31 nan nan nan 30 30 29 29 31 33 34 33 33 33 31 28 27 26 25 23 23 23 23 23 22 25 27 26 27 29 29 29 29 29 29 29 29 30 30 29 28 28 28 30 29 27 24 25 28 30 28
nan nan nan nan nan nan nan nan nan nan nan nan nan nan nan nan nan nan nan nan nan nan nan nan nan nan nan nan nan nan nan nan nan nan nan nan nan nan nan nan nan nan 31 31 30 31 nan nan nan nan nan 31 28 25 23 22 23 24 25 26 28 29 29 30 29 30 30 30 29 29 29 30 30 30 30 29 30 29 28 27 27 26 25 23 23 25 32
nan nan nan nan nan nan nan nan nan nan nan nan nan nan nan nan nan nan nan nan nan nan nan nan nan nan nan nan nan nan nan nan nan nan nan nan nan nan nan nan nan nan nan nan 30 31 32 33 nan 32 30 28 27 28 28 29 29 29 29 30 30 32 32 32 31 31 31 31 31 31 31 31 30 29 29 nan nan nan 27 27 27 25 26 24 nan nan nan
nan nan nan nan nan nan nan nan nan nan nan nan nan nan nan nan nan nan nan nan nan nan nan nan nan nan nan nan nan nan nan nan nan nan nan nan nan nan nan nan nan nan nan 32 32 nan nan nan 32 32 29 28 30 32 33 33 33 34 34 34 32 31 30 31 31 31 31 31 31 nan nan nan nan 28 nan nan 27 nan nan nan nan 26 nan nan nan nan nan
nan nan nan nan nan nan nan nan nan nan nan nan nan nan nan nan nan nan nan nan nan nan nan nan nan nan nan nan nan nan nan nan nan nan nan nan nan nan nan nan nan nan nan nan nan nan nan nan nan nan 31 nan 32 34 34 33 32 33 33 33 32 nan nan nan nan nan nan nan nan nan nan nan nan nan nan nan nan nan nan nan nan nan nan nan nan nan nan
nan nan nan nan nan nan nan nan nan nan nan nan nan nan nan nan nan nan nan nan nan nan nan nan nan nan nan nan nan nan nan nan nan nan nan nan nan nan nan nan nan nan nan nan nan nan nan nan nan nan nan nan 34 34 nan nan nan nan nan nan nan 29 30 33 nan nan nan nan nan nan nan nan nan nan nan nan nan nan nan nan nan nan nan nan nan nan nan
nan nan nan nan nan nan nan nan nan nan nan nan nan nan nan nan nan nan nan nan nan nan nan nan nan nan nan nan nan nan nan nan nan nan nan nan nan nan nan nan nan nan nan nan nan nan nan nan nan nan nan nan nan nan nan nan nan nan nan nan nan nan nan nan nan nan nan nan nan nan nan nan nan nan nan nan nan nan nan nan nan nan nan nan nan nan nan
nan nan nan nan nan nan nan nan nan nan nan nan nan nan nan nan nan nan nan nan nan nan nan nan nan nan nan nan nan nan nan nan nan nan nan nan nan nan nan nan nan nan nan nan nan nan nan nan nan nan nan nan nan nan nan nan nan nan nan nan nan nan nan nan nan nan nan nan nan nan nan nan nan nan nan nan nan nan nan nan nan nan nan nan nan nan nan
nan nan nan nan nan nan nan nan nan nan nan nan nan nan nan nan nan nan nan nan nan nan nan nan nan nan nan nan nan nan nan nan nan nan nan nan nan nan nan nan nan nan nan nan nan nan nan nan nan nan nan nan nan nan nan nan nan nan nan nan nan nan nan nan nan nan nan nan nan nan nan nan nan nan nan nan nan nan nan nan nan nan nan nan nan nan nan
nan nan nan nan nan nan nan nan nan nan nan nan nan nan nan nan nan nan nan nan nan nan nan nan nan nan nan nan nan nan nan nan nan nan nan nan nan nan nan nan nan nan nan nan nan nan nan nan nan nan nan nan nan nan nan nan nan nan nan nan nan nan nan nan nan nan nan nan nan nan nan nan nan nan nan nan nan nan nan nan nan nan nan nan nan nan nan
nan nan nan nan nan nan nan nan nan nan nan nan nan nan nan nan nan nan nan nan nan nan nan nan nan nan nan nan nan nan nan nan nan nan nan nan nan nan nan nan nan nan nan nan nan nan nan nan nan nan nan nan nan nan nan nan nan nan nan nan nan nan nan nan nan nan nan nan nan nan nan nan nan nan nan nan nan nan nan nan nan nan nan nan nan nan nan
nan nan nan nan nan nan nan nan nan nan nan nan nan nan nan nan nan nan nan nan nan nan nan nan nan nan nan nan nan nan nan nan nan nan nan nan nan nan nan nan nan nan nan nan nan nan nan nan nan nan nan nan nan nan nan nan nan nan nan nan nan nan nan nan nan nan nan nan nan nan nan nan nan nan nan nan nan nan nan nan nan nan nan nan nan nan nan
nan nan nan nan nan nan nan nan nan nan nan nan nan nan nan nan nan nan nan nan nan nan nan nan nan nan nan nan nan nan nan nan nan nan nan nan nan nan nan nan nan nan nan nan nan nan nan nan nan nan nan nan nan nan nan nan nan nan nan nan nan nan nan nan nan nan nan nan nan nan nan nan nan nan nan nan nan nan nan nan nan nan nan nan nan nan nan
nan nan nan nan nan nan nan nan nan nan nan nan nan nan nan nan nan nan nan nan nan nan nan nan nan nan nan nan nan nan nan nan nan nan nan nan nan nan nan nan nan nan nan nan nan nan nan nan nan nan nan nan nan nan nan nan nan nan nan nan nan nan nan nan nan nan nan nan nan nan nan nan nan nan nan nan nan nan nan nan nan nan nan nan nan nan nan
nan nan nan nan nan nan nan nan nan nan nan nan nan nan nan nan nan nan nan nan nan nan nan nan nan nan nan nan nan nan nan nan nan nan nan nan nan nan nan nan nan nan nan nan nan nan nan nan nan nan nan nan nan nan nan nan nan nan nan nan nan nan nan nan nan nan nan nan nan nan nan nan nan nan nan nan nan nan nan nan nan nan nan nan nan nan nan
nan nan nan nan nan nan nan nan nan nan nan nan nan nan nan nan nan nan nan nan nan nan nan nan nan nan nan nan nan nan nan nan nan nan nan nan nan nan nan nan nan nan nan nan nan nan nan nan nan nan nan nan nan nan nan nan nan nan nan nan nan nan nan nan nan nan nan nan nan nan nan nan nan nan nan nan nan nan nan nan nan nan nan nan nan nan nan
nan nan nan nan nan nan nan nan nan nan nan nan nan nan nan nan nan nan nan nan nan nan nan nan nan nan nan nan nan nan nan nan nan nan nan nan nan nan nan nan nan nan nan nan nan nan nan nan nan nan nan nan nan nan nan nan nan nan nan nan nan nan nan nan nan nan nan nan nan nan nan nan nan nan nan nan nan nan nan nan nan nan nan nan nan nan nan
nan nan nan nan nan nan nan nan nan nan nan nan nan nan nan nan nan nan nan nan nan nan nan nan nan nan nan nan nan nan nan nan nan nan nan nan nan nan nan nan nan nan nan nan nan nan nan nan nan nan nan nan nan nan nan nan nan nan nan nan nan nan nan nan nan nan nan nan nan nan nan nan nan nan nan nan nan nan nan nan nan nan nan nan nan nan nan
nan nan nan nan nan nan nan nan nan nan nan nan nan nan nan nan nan nan nan nan nan nan nan nan nan nan nan nan nan nan nan nan nan nan nan nan nan nan nan nan nan nan nan nan nan nan nan nan nan nan nan nan nan nan nan nan nan nan nan nan nan nan nan nan nan nan nan nan nan nan nan nan nan nan nan nan nan nan nan nan nan nan nan nan nan nan nan
nan nan nan nan nan nan nan nan nan nan nan nan nan nan nan nan nan nan nan nan nan nan nan nan nan nan nan nan nan nan nan nan nan nan nan nan nan nan nan nan nan nan nan nan nan nan nan nan nan nan nan nan nan nan nan nan nan nan nan nan nan nan nan nan nan nan nan nan nan nan nan nan nan nan nan nan nan nan nan nan nan nan nan nan nan nan nan
nan nan nan nan nan nan nan nan nan nan nan nan nan nan nan nan nan nan nan nan nan nan nan nan nan nan nan nan nan nan nan nan nan nan nan nan nan nan nan nan nan nan nan nan nan nan nan nan nan nan nan nan nan nan nan nan nan nan nan nan nan nan nan nan nan nan nan nan nan nan nan nan nan nan nan nan nan nan nan nan nan nan nan nan nan nan nan
nan nan nan nan nan nan nan nan nan nan nan nan nan nan nan nan nan nan nan nan nan nan nan nan nan nan nan nan nan nan nan nan nan nan nan nan nan nan nan nan nan nan nan nan nan nan nan nan nan nan nan nan nan nan nan nan nan nan nan nan nan nan nan nan nan nan nan nan nan nan nan nan nan nan nan nan nan nan nan nan nan nan nan nan nan nan nan
nan nan nan nan nan nan nan nan nan nan nan nan nan nan nan nan nan nan nan nan nan nan nan nan nan nan nan nan nan nan nan nan nan nan nan nan nan nan nan nan nan nan nan nan nan nan nan nan nan nan nan nan nan nan nan nan nan nan nan nan nan nan nan nan nan nan nan nan nan nan nan nan nan nan nan nan nan nan nan nan nan nan nan nan nan nan nan
nan nan nan nan nan nan nan nan nan nan nan nan nan nan nan nan nan nan nan nan nan nan nan nan nan nan nan nan nan nan nan nan nan nan nan nan nan nan nan nan nan nan nan nan nan nan nan nan nan nan nan nan nan nan nan nan nan nan nan nan nan nan nan nan nan nan nan nan nan nan nan nan nan nan nan nan nan nan nan nan nan nan nan nan nan nan nan
nan nan nan nan nan nan nan nan nan nan nan nan nan nan nan nan nan nan nan nan nan nan nan nan nan nan nan nan nan nan nan nan nan nan nan nan nan nan nan nan nan nan nan nan nan nan nan nan nan nan nan nan nan nan nan nan nan nan nan nan nan nan nan nan nan nan nan nan nan nan nan nan nan nan nan nan nan nan nan nan nan nan nan nan nan nan nan
nan nan nan nan nan nan nan nan nan nan nan nan nan nan nan nan nan nan nan nan nan nan nan nan nan nan nan nan nan nan nan nan nan nan nan nan nan nan nan nan nan nan nan nan nan nan nan nan nan nan nan nan nan nan nan nan nan nan nan nan nan nan nan nan nan nan nan nan nan nan nan nan nan nan nan nan nan nan nan nan nan nan nan nan nan nan nan
Wind_Direction
nan nan nan nan nan nan nan nan nan nan nan nan nan nan nan nan nan nan nan nan nan nan nan nan nan nan nan nan nan nan nan nan nan nan nan nan nan 198 199 202 203 200 nan 195 199 199 196 197 197 198 200 201 205 207 207 207 209 209 214 224 216 209 211 214 208 203 206 207 212 217 221 223 227 233 240 246 253 264 268 267 263 266 268 272 269 265 263
nan nan nan nan nan nan nan nan nan nan nan nan nan nan nan nan nan nan nan nan nan nan nan nan nan nan nan nan nan nan nan nan nan nan 179 186 195 197 196 196 197 nan nan 196 198 196 197 197 195 196 199 201 203 205 203 204 204 203 210 216 215 209 205 207 213 212 214 216 220 222 223 226 230 235 242 247 254 262 264 263 260 258 263 266 269 268 270
nan nan nan nan nan nan nan nan nan nan nan nan nan nan nan nan nan nan nan nan nan nan nan 72 90 97 97 99 88 81 84 73 57 115 153 180 187 188 188 188 nan nan nan 196 195 195 195 195 196 197 198 199 202 203 203 202 201 201 207 211 207 205 207 208 210 212 214 218 225 227 226 226 230 235 241 248 255 260 260 258 257 252 251 258 263 250 256
nan nan nan nan nan nan nan nan nan nan nan nan nan nan nan nan nan nan nan nan nan nan nan nan 91 101 106 110 119 123 123 134 147 153 162 173 176 179 nan nan nan nan nan 193 192 192 194 194 195 196 196 199 202 201 200 199 199 203 205 207 207 206 208 206 206 211 212 218 227 232 231 230 231 235 240 248 255 257 256 253 248 250 260 270 262 259 258
nan nan nan nan nan nan nan nan nan nan nan nan nan nan nan nan nan nan nan nan nan nan nan 101 104 107 115 113 118 123 129 132 137 141 148 153 167 nan nan nan nan nan nan 189 189 191 193 193 194 195 199 201 200 200 199 197 200 203 207 210 211 211 210 208 207 207 210 216 226 234 236 234 232 234 241 248 251 253 255 248 243 254 263 261 264 264 269
nan nan nan nan nan nan nan nan nan nan nan nan nan nan nan nan nan nan nan nan nan nan nan nan 99 103 102 101 106 111 123 125 130 136 146 161 nan nan nan nan nan nan 187 184 186 190 190 192 194 195 200 202 198 198 199 199 199 201 210 212 213 214 215 214 216 212 205 207 219 230 237 237 234 235 241 246 248 250 251 248 247 251 258 262 262 267 270
nan nan nan nan nan nan nan nan nan nan nan nan nan nan nan nan nan nan nan nan nan nan nan 108 106 105 97 93 104 120 128 128 131 133 136 166 158 165 nan nan nan nan 177 180 183 185 186 190 192 196 193 195 199 198 197 195 195 203 207 215 214 214 215 217 220 217 204 199 211 225 236 239 236 235 237 240 248 251 253 254 252 250 258 259 257 261 265
nan nan nan nan nan nan nan nan nan nan nan nan nan nan nan nan nan nan nan nan nan nan 125 122 114 101 101 101 100 130 131 133 133 132 131 144 152 139 139 142 150 163 172 177 183 183 186 190 190 193 194 194 200 198 194 196 197 200 209 216 215 213 218 218 223 223 214 203 207 221 235 240 238 235 236 242 251 248 245 245 243 245 249 258 266 264 262
nan nan nan nan nan nan nan nan nan nan nan nan nan nan nan nan nan nan nan nan nan nan 131 127 119 104 103 118 131 133 132 131 132 125 121 131 137 131 130 141 150 159 170 178 183 188 186 187 190 185 188 192 195 197 194 192 195 198 208 216 214 215 221 220 223 228 225 212 205 217 233 240 237 236 238 241 242 243 248 248 253 254 254 253 260 265 263
nan nan nan nan nan nan nan nan nan nan nan nan nan nan nan nan nan nan nan nan nan nan nan 136 127 110 nan 135 126 128 130 130 130 126 121 129 134 132 135 146 157 162 170 178 181 186 184 180 179 182 185 191 194 194 192 191 193 198 207 213 216 219 220 219 223 229 228 220 209 215 229 236 235 234 234 236 242 241 248 250 251 249 254 256 260 264 267
nan nan nan nan nan nan nan nan nan nan nan nan nan nan nan nan nan nan nan nan nan nan nan 130 134 nan 131 121 121 126 128 128 129 129 131 134 140 136 133 143 155 163 167 170 170 173 178 176 173 181 188 192 192 190 190 192 194 202 206 212 220 225 219 217 220 227 228 218 207 211 225 229 234 239 239 240 238 235 236 243 248 250 248 256 263 261 264
nan nan nan nan nan nan nan nan nan nan nan nan nan nan nan nan nan nan nan nan nan nan nan nan nan nan nan nan nan 126 128 128 135 141 141 143 145 147 148 152 159 167 170 174 173 171 170 174 180 183 186 186 186 186 187 193 197 199 204 209 220 222 219 216 217 223 222 213 200 208 226 231 235 238 235 237 238 235 233 236 245 246 250 258 263 260 261
nan nan nan nan nan nan nan nan nan nan nan nan nan nan nan nan nan nan nan nan nan nan 144 nan nan nan nan 122 122 129 136 145 146 147 149 150 153 156 154 156 163 171 172 175 178 176 174 174 176 182 183 186 185 187 192 194 195 195 202 212 220 219 212 209 211 218 216 205 201 210 224 234 237 238 239 241 240 237 237 239 243 245 249 253 257 259 260
nan nan nan nan nan nan nan nan nan nan nan nan nan nan nan nan nan nan nan nan nan nan nan nan nan 123 124 133 145 143 146 147 145 148 151 156 162 163 163 160 163 170 172 176 178 179 179 180 171 171 181 187 190 194 195 195 195 202 209 218 219 210 202 202 209 214 212 201 201 214 225 232 238 240 236 241 243 243 238 242 246 249 250 254 258 260 260
nan nan nan nan nan nan nan nan nan nan nan nan nan nan nan nan nan nan nan nan nan nan 137 146 143 150 158 154 144 145 150 149 151 152 155 161 165 169 168 167 167 168 173 176 175 171 173 182 183 175 176 189 193 194 195 196 201 207 214 217 209 198 195 202 209 210 208 206 209 218 227 231 234 239 239 241 238 242 244 243 248 252 256 259 263 264 263
nan nan nan nan nan nan nan nan nan nan nan nan nan nan nan nan nan nan nan nan nan nan nan nan nan 148 148 149 145 151 151 152 159 159 161 167 170 172 173 168 174 177 177 179 179 180 177 178 189 192 184 181 193 203 193 193 202 209 213 207 198 194 198 205 210 210 210 209 208 217 218 220 227 239 241 239 239 241 245 249 252 256 258 261 263 265 267
nan nan nan nan nan nan nan nan nan nan nan nan nan nan nan nan nan nan nan nan 125 139 146 148 145 143 143 141 144 152 154 158 158 156 158 161 165 168 167 160 162 178 180 186 187 187 184 183 186 189 187 188 198 203 196 204 206 204 198 192 192 200 206 207 207 205 200 204 207 206 199 202 226 238 241 243 242 235 243 248 253 257 258 260 263 266 267
nan nan nan nan nan nan nan nan nan nan nan nan nan nan nan nan nan nan nan nan nan nan 143 158 153 145 138 145 155 159 159 162 160 158 163 164 161 166 173 170 166 167 185 194 199 197 195 188 196 193 187 198 212 207 208 211 207 197 190 191 199 211 218 215 210 202 193 199 201 196 188 196 229 243 250 247 247 244 244 248 251 255 257 258 264 269 270
nan nan nan nan nan nan nan nan nan nan nan nan nan nan nan nan nan nan nan nan nan 137 140 157 150 148 146 149 153 160 162 164 164 164 163 165 167 165 169 166 164 167 173 195 199 197 196 190 196 201 201 206 212 216 218 212 203 195 192 199 206 209 216 219 213 206 199 194 198 200 198 220 231 231 234 248 252 251 251 253 253 256 260 263 264 264 268
nan nan nan nan nan nan nan nan nan nan nan nan nan nan nan nan nan nan nan nan nan nan nan nan 150 156 161 159 157 162 165 165 163 165 164 166 174 170 170 172 175 179 185 187 187 189 190 185 188 196 201 204 202 214 216 210 208 209 210 212 213 213 210 205 204 202 201 211 219 222 222 227 229 229 228 229 237 239 241 245 257 257 257 261 266 270 271
nan nan nan nan nan nan nan nan nan nan nan nan nan nan nan nan nan nan nan nan nan nan nan nan nan 166 170 168 166 170 171 172 167 164 166 171 175 175 179 181 185 185 187 188 183 185 187 186 188 202 211 206 202 203 202 203 210 215 215 216 217 216 211 204 199 198 199 203 226 242 242 238 235 231 223 229 236 240 236 233 238 251 261 262 264 267 273
nan nan nan nan nan nan nan nan nan nan nan nan nan nan nan nan nan nan nan nan nan nan nan nan 168 nan 173 178 173 172 173 174 171 168 169 172 174 176 176 188 193 199 198 198 194 192 188 184 189 197 199 196 192 199 210 217 223 224 223 224 224 224 223 212 202 206 211 223 233 239 244 249 249 241 237 237 234 239 235 230 243 245 250 259 261 265 266
nan nan nan nan nan nan nan nan nan nan nan nan nan nan nan nan nan nan nan nan nan nan nan nan nan nan 176 nan 177 178 175 175 174 172 171 173 175 180 184 192 193 199 202 205 205 200 191 188 187 191 199 198 197 197 206 222 231 234 238 233 228 227 224 217 209 218 229 233 237 242 244 247 249 252 248 239 238 239 242 245 248 250 253 257 264 271 275
nan nan nan nan nan nan nan nan nan nan nan nan nan nan nan nan nan nan nan nan nan nan nan nan nan nan nan 178 180 183 180 177 177 177 175 177 181 186 193 196 196 196 197 nan nan 204 197 194 190 189 196 198 201 202 208 215 218 222 229 233 224 218 214 213 214 225 234 240 244 247 246 248 252 257 257 255 246 240 245 250 251 253 254 258 263 269 275
nan nan nan nan nan nan nan nan nan nan nan nan nan nan nan nan nan nan nan nan nan nan nan nan nan nan nan nan nan 183 184 181 nan 180 180 184 190 195 195 199 198 194 192 200 nan 202 198 198 201 200 201 199 200 205 206 208 220 224 218 217 219 216 212 214 222 229 237 244 248 252 254 254 253 255 258 261 261 258 251 253 255 254 251 251 254 258 259
nan nan nan nan nan nan nan nan nan nan nan nan nan nan nan nan nan nan nan nan nan nan nan nan nan nan nan nan nan nan nan 189 nan nan nan 190 nan 197 196 198 200 198 192 198 206 206 203 206 209 207 205 201 199 198 202 207 205 212 217 221 217 207 214 222 226 231 237 245 251 252 251 252 255 258 258 260 nan 266 267 262 256 252 248 244 245 253 253
nan nan nan nan nan nan nan nan nan nan nan nan nan nan nan nan nan nan nan nan nan nan nan nan nan nan nan nan nan nan nan nan nan nan nan nan 194 nan nan nan 201 207 203 203 203 204 208 208 207 204 203 197 194 195 194 201 202 209 216 218 218 225 233 236 235 237 239 243 247 252 255 258 260 261 261 262 264 263 266 270 268 263 258 251 246 249 260
nan nan nan nan nan nan nan nan nan nan nan nan nan nan nan nan nan nan nan nan nan nan nan nan nan nan nan nan nan nan nan nan nan nan nan nan nan nan nan nan nan nan 211 209 203 201 nan nan nan nan nan 191 191 193 201 207 213 219 223 227 231 236 239 242 242 243 246 249 253 256 258 256 258 261 264 268 269 271 271 270 271 271 264 260 264 260 260
nan nan nan nan nan nan nan nan nan nan nan nan nan nan nan nan nan nan nan nan nan nan nan nan nan nan nan nan nan nan nan nan nan nan nan nan nan nan nan nan nan nan nan nan 199 197 202 205 nan 206 203 198 203 209 214 219 223 228 231 233 235 236 238 242 246 248 248 251 253 256 257 261 264 265 268 nan nan nan 270 270 269 268 270 275 nan nan nan
nan nan nan nan nan nan nan nan nan nan nan nan nan nan nan nan nan nan nan nan nan nan nan nan nan nan nan nan nan nan nan nan nan nan nan nan nan nan nan nan nan nan nan 202 196 nan nan nan 213 216 211 207 211 219 224 227 230 232 233 233 235 238 243 247 250 250 252 253 255 nan nan nan nan 269 nan nan 270 nan nan nan nan 275 nan nan nan nan nan
nan nan nan nan nan nan nan nan nan nan nan nan nan nan nan nan nan nan nan nan nan nan nan nan nan nan nan nan nan nan nan nan nan nan nan nan nan nan nan nan nan nan nan nan nan nan nan nan nan nan 214 nan 216 222 227 230 232 235 237 238 240 nan nan nan nan nan nan nan nan nan nan nan nan nan nan nan nan nan nan nan nan nan nan nan nan nan nan
nan nan nan nan nan nan nan nan nan nan nan nan nan nan nan nan nan nan nan nan nan nan nan nan nan nan nan nan nan nan nan nan nan nan nan nan nan nan nan nan nan nan nan nan nan nan nan nan nan nan nan nan 226 227 nan nan nan nan nan nan nan 242 242 248 nan nan nan nan nan nan nan nan nan nan nan nan nan nan nan nan nan nan nan nan nan nan nan
nan nan nan nan nan nan nan nan nan nan nan nan nan nan nan nan nan nan nan nan nan nan nan nan nan nan nan nan nan nan nan nan nan nan nan nan nan nan nan nan nan nan nan nan nan nan nan nan nan nan nan nan nan nan nan nan nan nan nan nan nan nan nan nan nan nan nan nan nan nan nan nan nan nan nan nan nan nan nan nan nan nan nan nan nan nan nan
nan nan nan nan nan nan nan nan nan nan nan nan nan nan nan nan nan nan nan nan nan nan nan nan nan nan nan nan nan nan nan nan nan nan nan nan nan nan nan nan nan nan nan nan nan nan nan nan nan nan nan nan nan nan nan nan nan nan nan nan nan nan nan nan nan nan nan nan nan nan nan nan nan nan nan nan nan nan nan nan nan nan nan nan nan nan nan
nan nan nan nan nan nan nan nan nan nan nan nan nan nan nan nan nan nan nan nan nan nan nan nan nan nan nan nan nan nan nan nan nan nan nan nan nan nan nan nan nan nan nan nan nan nan nan nan nan nan nan nan nan nan nan nan nan nan nan nan nan nan nan nan nan nan nan nan nan nan nan nan nan nan nan nan nan nan nan nan nan nan nan nan nan nan nan
nan nan nan nan nan nan nan nan nan nan nan nan nan nan nan nan nan nan nan nan nan nan nan nan nan nan nan nan nan nan nan nan nan nan nan nan nan nan nan nan nan nan nan nan nan nan nan nan nan nan nan nan nan nan nan nan nan nan nan nan nan nan nan nan nan nan nan nan nan nan nan nan nan nan nan nan nan nan nan nan nan nan nan nan nan nan nan
nan nan nan nan nan nan nan nan nan nan nan nan nan nan nan nan nan nan nan nan nan nan nan nan nan nan nan nan nan nan nan nan nan nan nan nan nan nan nan nan nan nan nan nan nan nan nan nan nan nan nan nan nan nan nan nan nan nan nan nan nan nan nan nan nan nan nan nan nan nan nan nan nan nan nan nan nan nan nan nan nan nan nan nan nan nan nan
nan nan nan nan nan nan nan nan nan nan nan nan nan nan nan nan nan nan nan nan nan nan nan nan nan nan nan nan nan nan nan nan nan nan nan nan nan nan nan nan nan nan nan nan nan nan nan nan nan nan nan nan nan nan nan nan nan nan nan nan nan nan nan nan nan nan nan nan nan nan nan nan nan nan nan nan nan nan nan nan nan nan nan nan nan nan nan
nan nan nan nan nan nan nan nan nan nan nan nan nan nan nan nan nan nan nan nan nan nan nan nan nan nan nan nan nan nan nan nan nan nan nan nan nan nan nan nan nan nan nan nan nan nan nan nan nan nan nan nan nan nan nan nan nan nan nan nan nan nan nan nan nan nan nan nan nan nan nan nan nan nan nan nan nan nan nan nan nan nan nan nan nan nan nan
nan nan nan nan nan nan nan nan nan nan nan nan nan nan nan nan nan nan nan nan nan nan nan nan nan nan nan nan nan nan nan nan nan nan nan nan nan nan nan nan nan nan nan nan nan nan nan nan nan nan nan nan nan nan nan nan nan nan nan nan nan nan nan nan nan nan nan nan nan nan nan nan nan nan nan nan nan nan nan nan nan nan nan nan nan nan nan
nan nan nan nan nan nan nan nan nan nan nan nan nan nan nan nan nan nan nan nan nan nan nan nan nan nan nan nan nan nan nan nan nan nan nan nan nan nan nan nan nan nan nan nan nan nan nan nan nan nan nan nan nan nan nan nan nan nan nan nan nan nan nan nan nan nan nan nan nan nan nan nan nan nan nan nan nan nan nan nan nan nan nan nan nan nan nan
nan nan nan nan nan nan nan nan nan nan nan nan nan nan nan nan nan nan nan nan nan nan nan nan nan nan nan nan nan nan nan nan nan nan nan nan nan nan nan nan nan nan nan nan nan nan nan nan nan nan nan nan nan nan nan nan nan nan nan nan nan nan nan nan nan nan nan nan nan nan nan nan nan nan nan nan nan nan nan nan nan nan nan nan nan nan nan
nan nan nan nan nan nan nan nan nan nan nan nan nan nan nan nan nan nan nan nan nan nan nan nan nan nan nan nan nan nan nan nan nan nan nan nan nan nan nan nan nan nan nan nan nan nan nan nan nan nan nan nan nan nan nan nan nan nan nan nan nan nan nan nan nan nan nan nan nan nan nan nan nan nan nan nan nan nan nan nan nan nan nan nan nan nan nan
nan nan nan nan nan nan nan nan nan nan nan nan nan nan nan nan nan nan nan nan nan nan nan nan nan nan nan nan nan nan nan nan nan nan nan nan nan nan nan nan nan nan nan nan nan nan nan nan nan nan nan nan nan nan nan nan nan nan nan nan nan nan nan nan nan nan nan nan nan nan nan nan nan nan nan nan nan nan nan nan nan nan nan nan nan nan nan
nan nan nan nan nan nan nan nan nan nan nan nan nan nan nan nan nan nan nan nan nan nan nan nan nan nan nan nan nan nan nan nan nan nan nan nan nan nan nan nan nan nan nan nan nan nan nan nan nan nan nan nan nan nan nan nan nan nan nan nan nan nan nan nan nan nan nan nan nan nan nan nan nan nan nan nan nan nan nan nan nan nan nan nan nan nan nan
nan nan nan nan nan nan nan nan nan nan nan nan nan nan nan nan nan nan nan nan nan nan nan nan nan nan nan nan nan nan nan nan nan nan nan nan nan nan nan nan nan nan nan nan nan nan nan nan nan nan nan nan nan nan nan nan nan nan nan nan nan nan nan nan nan nan nan nan nan nan nan nan nan nan nan nan nan nan nan nan nan nan nan nan nan nan nan
nan nan nan nan nan nan nan nan nan nan nan nan nan nan nan nan nan nan nan nan nan nan nan nan nan nan nan nan nan nan nan nan nan nan nan nan nan nan nan nan nan nan nan nan nan nan nan nan nan nan nan nan nan nan nan nan nan nan nan nan nan nan nan nan nan nan nan nan nan nan nan nan nan nan nan nan nan nan nan nan nan nan nan nan nan nan nan
nan nan nan nan nan nan nan nan nan nan nan nan nan nan nan nan nan nan nan nan nan nan nan nan nan nan nan nan nan nan nan nan nan nan nan nan nan nan nan nan nan nan nan nan nan nan nan nan nan nan nan nan nan nan nan nan nan nan nan nan nan nan nan nan nan nan nan nan nan nan nan nan nan nan nan nan nan nan nan nan nan nan nan nan nan nan nan
nan nan nan nan nan nan nan nan nan nan nan nan nan nan nan nan nan nan nan nan nan nan nan nan nan nan nan nan nan nan nan nan nan nan nan nan nan nan nan nan nan nan nan nan nan nan nan nan nan nan nan nan nan nan nan nan nan nan nan nan nan nan nan nan nan nan nan nan nan nan nan nan nan nan nan nan nan nan nan nan nan nan nan nan nan nan nan
nan nan nan nan nan nan nan nan nan nan nan nan nan nan nan nan nan nan nan nan nan nan nan nan nan nan nan nan nan nan nan nan nan nan nan nan nan nan nan nan nan nan nan nan nan nan nan nan nan nan nan nan nan nan nan nan nan nan nan nan nan nan nan nan nan nan nan nan nan nan nan nan nan nan nan nan nan nan nan nan nan nan nan nan nan nan nan
nan nan nan nan nan nan nan nan nan nan nan nan nan nan nan nan nan nan nan nan nan nan nan nan nan nan nan nan nan nan nan nan nan nan nan nan nan nan nan nan nan nan nan nan nan nan nan nan nan nan nan nan nan nan nan nan nan nan nan nan nan nan nan nan nan nan nan nan nan nan nan nan nan nan nan nan nan nan nan nan nan nan nan nan nan nan nan
nan nan nan nan nan nan nan nan nan nan nan nan nan nan nan nan nan nan nan nan nan nan nan nan nan nan nan nan nan nan nan nan nan nan nan nan nan nan nan nan nan nan nan nan nan nan nan nan nan nan nan nan nan nan nan nan nan nan nan nan nan nan nan nan nan nan nan nan nan nan nan nan nan nan nan nan nan nan nan nan nan nan nan nan nan nan nan